Hourly Weather Roundup
Issued by NWS Central Illinois

Home | Current Version | Previous Version | Text Only | Print | Product List | Glossary On
Versions: 1 2 3 4 5 6 7 8 9 10 11 12 13 14 15 16 17 18 19 20 21 22 23 24 25 26 27 28 29 30 31 32 33 34 35 36 37 38 39 40 41 42 43 44 45 46 47 48 49 50
000
NZUS43 KILX 302010
HWRILX

AREA WEATHER ROUNDUP
NATIONAL WEATHER SERVICE, LINCOLN IL
200 PM CST FRI JAN 30 2015


CITY           SKY/WX    TMP DP  RH WIND       PRES   REMARKS
BLOOMINGTON    MOSUNNY   33  19  56 NW5       30.48F WCI  28
CHAMPAIGN      SUNNY     33  16  49 VRB5      30.47F WCI  29
DECATUR        SUNNY     35  17  47 NE5       30.48F WCI  31
FLORA          SUNNY     36  20  52 CALM      30.49S
GALESBURG      SUNNY     30  20  64 CALM      30.47F
JACKSONVILLE   SUNNY     36  19  49 SW7       30.49S WCI  30
LACON          SUNNY     31  16  54 NW3       30.47F
LAWRENCEVILLE  SUNNY     38  21  50 NW7       30.48F WCI  33
LITCHFIELD     SUNNY     33  19  57 CALM      30.48F
$$


CITY           SKY/WX    TMP DP  RH WIND       PRES   REMARKS
LINCOLN        SUNNY     35  20  55 CALM      30.49F
MACOMB         SUNNY     32  20  60 W6        30.50F WCI  26
MATTOON        SUNNY     33  18  53 NE3       30.46F
MT CARMEL AP   MOSUNNY   39  19  45 NW3       30.47F
OLNEY-NOBLE AP SUNNY     36  21  55 CALM      30.48F
PARIS          SUNNY     34  18  52 CALM      30.48S
PEORIA         SUNNY     35  16  45 NW3       30.48F
PONTIAC        MOSUNNY   31  19  62 W5        30.48F WCI  26
RANTOUL        SUNNY     33  16  51 N3        30.47F
ROBINSON       SUNNY     35  18  49 N5        30.49S WCI  31
SPRINGFIELD    SUNNY     36  19  50 CALM      30.49F
TAYLORVILLE    SUNNY     32  21  64 N3        30.49F
$$

...REGIONAL REPORTS...


CITY           SKY/WX    TMP DP  RH WIND       PRES   REMARKS
CHICAGO O`HARE PTSUNNY   28   8  43 NW5       30.47F WCI  23
KANKAKEE       SUNNY     30  17  58 NW5       30.48F WCI  25
MOLINE         SUNNY     29  14  53 VRB5      30.48F WCI  24
MOUNT VERNON   SUNNY     39  21  48 E5        30.48F
PITTSFIELD     SUNNY     35  19  51 CALM      30.49F
QUINCY         SUNNY     33  15  47 VRB5      30.48F WCI  29
ROCKFORD       MOSUNNY   27  10  49 CALM      30.49F
$$


CITY           SKY/WX    TMP DP  RH WIND       PRES   REMARKS
BURLINGTON     SUNNY     31  16  54 S6        30.47F WCI  25
CEDAR RAPIDS   SUNNY     29  12  49 CALM      30.45F
DES MOINES     MOSUNNY   33  13  43 S10       30.44F WCI  25
KIRKSVILLE     SUNNY     35  19  52 S6        30.47F WCI  30
OTTUMWA        SUNNY     32  13  45 VRB3      30.45F
ST LOUIS       MOSUNNY   40  16  37 CALM      30.49
$$


CITY           SKY/WX    TMP DP  RH WIND       PRES   REMARKS
TERRE HAUTE    SUNNY     36  18  48 NW8       30.47S WCI  30
EVANSVILLE     SUNNY     41  22  46 N10       30.47F WCI  35
INDIANAPOLIS   PTSUNNY   30  15  53 NW10      30.45S WCI  21
LAFAYETTE      PTSUNNY   30  16  56 NW8       30.48S WCI  22
MADISON        MOSUNNY   24   9  52 NW7       30.45F WCI  16
MILWAUKEE      MOSUNNY   25   9  50 E9        30.46F WCI  15
$$





USA.gov is the U.S. government's official web portal to all federal, state and local government web resources and services.